This demonstration page uses our WeatherBlox Daily Observations layout. Learn more.

Left ArrowRight Arrow

Hourly Observations for November 10, 2021

Temp ( °F °C ) Dew Point ( °F °C ) Humidity (%) Winds ( mph kmh ) Pressure ( in mb ) Visibility ( mi km ) Precip ( " mm )
12:56 am 00:56 Cloudy 47 8.3 40 4.4 77 77 SE 9 15 29.97 1015 10 16 0.00 0.00
1:56 am 01:56 Cloudy 48 8.9 41 5 77 77 SSE 7 11 29.94 1014 10 16 0.00 0.00
2:56 am 02:56 Cloudy 48 8.9 42 5.6 80 80 SE 5 7 29.92 1013 10 16 0.00 0.00
3:56 am 03:56 Cloudy 48 8.9 42 5.6 80 80 ESE 6 9 29.88 1012 10 16 0.00 0.00
4:56 am 04:56 Cloudy 47 8.3 42 5.6 83 83 Calm 29.88 1012 10 16 0.00 0.00
5:56 am 05:56 Cloudy 47 8.3 43 6.1 86 86 E 3 6 29.87 1011 10 16 0.00 0.00
6:56 am 06:56 Mostly Cloudy with Mist and Fog 45 7.2 42 5.6 90 90 Calm 29.86 1011 6 10 0.00 0.00
7:56 am 07:56 Cloudy 46 7.8 42 5.6 86 86 Calm 29.86 1011 10 16 0.00 0.00
8:56 am 08:56 Cloudy 47 8.3 43 6.1 86 86 Calm 29.86 1011 9 14 0.00 0.00
9:56 am 09:56 Cloudy with Light Rain 46 7.8 45 7.2 96 96 Calm 29.86 1011 5 8 0.00 0.00
10:16 am 10:16 Cloudy with Light Rain 46 8 45 7 93 93 N 5 7 29.84 1011 6 10 0.00 0.00
10:56 am 10:56 Cloudy with Light Rain 47 8.3 45 7.2 93 93 N 3 6 29.82 1010 9 14 0.00 0.00
11:51 am 11:51 Cloudy with Light Rain 46 8 46 8 100 100 WNW 9 15 29.83 1010 7 11 0.01 0.25
11:56 am 11:56 Cloudy with Light Rain 47 8.3 46 7.8 97 97 NW 9 15 29.82 1010 8 13 0.01 0.25
12:12 pm 12:12 Cloudy with Light Rain 46 8 46 8 100 100 NW 7 11 29.83 1010 8 13 0.00 0.00
12:56 pm 12:56 Cloudy with Light Rain 47 8.3 46 7.8 97 97 NW 9 15 29.80 1009 3 5 0.05 1.27
1:16 pm 13:16 Cloudy with Light Rain 48 9 46 8 94 94 NW 10 17 29.80 1009 10 16 0.00 0.00
1:26 pm 13:26 Cloudy with Light Rain 48 9 46 8 94 94 NW 13 20 29.79 1009 10 16 0.00 0.00
1:56 pm 13:56 Cloudy with Light Rain 48 8.9 46 7.8 93 93 NW 14 22 29.79 1009 6 10 0.01 0.25
2:56 pm 14:56 Mostly Cloudy with Light Rain 50 10 47 8.3 89 89 NNW 16 26 29.78 1009 10 16 0.02 0.51
3:19 pm 15:19 Mostly Cloudy 52 11 46 8 82 82 NNW 16 26 29.79 1009 10 16 0.00 0.00
3:56 pm 15:56 Partly Cloudy 50 10 45 7.2 83 83 NNW 21 33 29.81 1010 10 16 0.00 0.00
4:56 pm 16:56 Mostly Sunny 51 10.6 43 6.1 74 74 NNW 20 31 29.84 1010 10 16 0.00 0.00
5:56 pm 17:56 Clear 48 8.9 40 4.4 74 74 NNW 14 22 29.87 1011 10 16 0.00 0.00
6:56 pm 18:56 Clear 46 7.8 39 3.9 77 77 NNW 12 19 29.89 1012 10 16 0.00 0.00
7:56 pm 19:56 Clear 43 6.1 36 2.2 76 76 NNW 9 15 29.91 1013 10 16 0.00 0.00
8:56 pm 20:56 Clear 41 5 35 1.7 79 79 NW 8 13 29.93 1014 10 16 0.00 0.00
9:56 pm 21:56 Clear 39 3.9 33 0.6 79 79 NW 10 17 29.94 1014 10 16 0.00 0.00
10:56 pm 22:56 Clear 38 3.3 31 -0.6 76 76 NW 12 19 29.95 1014 10 16 0.00 0.00
11:56 pm 23:56 Clear 37 2.8 29 -1.7 73 73 NW 10 17 29.96 1015 10 16 0.00 0.00

Powered by AerisWeather